Location: El Manguito
(10.2358°N, 67.3634°W)
Time: 18:38:00
(UTC+00:00)

Aurora 2 Rocket - Visible Passes

Search period start: 05 December 2024 00:00
Search period end: 15 December 2024 00:00
Orbit: 386 x 1600 km, 25.0° (Epoch: 04 December)

Date Brightness Start Highest point End Pass type
(mag) Time Alt. Az. Time Alt. Az. Time Alt. Az.
05 Dec 5.9 01:45:41 10° SW 01:49:58 27° SSW 01:49:58 27° SSW visible
05 Dec 4.5 09:26:04 14° NNW 09:27:39 17° N 09:30:20 10° NE visible
05 Dec 6.3 22:36:46 10° SSE 22:39:04 11° SSE 22:41:26 10° SE visible
06 Dec 5.4 00:24:11 10° SSW 00:32:40 32° SSE 00:33:22 32° SE visible
06 Dec 6.3 02:15:50 10° WSW 02:18:15 20° SW 02:18:15 20° SW visible
06 Dec 4.0 09:54:34 10° NW 09:58:32 24° NNE 10:01:42 10° ENE visible
06 Dec 6.0 23:03:49 10° SSW 23:09:56 19° SSE 23:16:31 10° ESE visible
07 Dec 5.0 00:53:46 10° SW 01:01:38 46° S 01:01:38 46° S visible
07 Dec 6.8 02:46:23 10° WSW 02:46:30 10° WSW 02:46:30 10° WSW visible
07 Dec 4.7 08:37:59 20° NNE 08:37:59 20° NNE 08:40:34 10° NE visible
07 Dec 5.4 23:32:39 10° SSW 23:40:31 31° SSE 23:45:01 22° ESE visible
08 Dec 5.3 01:23:46 10° WSW 01:29:53 44° SW 01:29:53 44° SW visible
08 Dec 4.1 09:06:22 27° NNW 09:07:42 30° NNE 09:11:42 10° ENE visible
09 Dec 4.8 00:02:05 10° SW 00:10:56 49° SSE 00:13:15 42° ESE visible
09 Dec 5.9 01:54:13 10° WSW 01:58:08 28° WSW 01:58:08 28° WSW visible
09 Dec 5.6 07:49:48 13° ENE 07:49:48 13° ENE 07:50:26 10° ENE visible
09 Dec 3.3 09:34:41 20° NW 09:38:23 49° NNE 09:42:32 10° E visible
09 Dec 5.4 22:41:24 10° SSW 22:48:23 29° SSE 22:56:29 10° E visible
10 Dec 4.4 00:31:59 10° WSW 00:41:19 73° SSE 00:41:29 73° SE visible
10 Dec 6.5 02:25:02 10° W 02:26:22 15° W 02:26:22 15° W visible
10 Dec 4.5 08:18:06 31° NE 08:18:06 31° NE 08:21:26 10° ENE visible
10 Dec 2.7 10:02:58 10° WNW 10:08:46 85° SSW 10:12:53 10° ESE visible
10 Dec 4.8 23:10:41 10° SW 23:18:37 46° SSE 23:24:49 22° E visible
11 Dec 4.7 01:02:17 10° WSW 01:09:41 61° W 01:09:41 61° W visible
11 Dec 3.5 08:46:21 51° N 08:47:10 55° NNE 08:52:10 10° E visible
11 Dec 4.4 23:40:26 10° SW 23:48:51 72° SSE 23:53:00 40° E visible
12 Dec 5.5 01:32:58 10° W 01:37:53 34° W 01:37:53 34° W visible
12 Dec 5.7 07:29:42 16° ENE 07:29:42 16° ENE 07:30:51 10° E visible
12 Dec 3.1 09:14:34 34° WNW 09:17:31 86° SSW 09:22:27 10° ESE visible
12 Dec 4.8 22:19:30 10° SW 22:26:23 43° SSE 22:35:10 10° E visible
13 Dec 4.3 00:10:36 10° WSW 00:19:13 79° NNW 00:21:09 62° NE visible
13 Dec 6.3 02:03:58 10° W 02:06:00 18° WNW 02:06:00 18° WNW visible
13 Dec 4.6 07:57:53 39° E 07:57:53 39° E 08:01:31 10° E visible
13 Dec 3.7 09:42:46 17° W 09:47:34 45° SSW 09:52:12 10° SE visible
13 Dec 4.3 22:49:06 10° SW 22:56:29 70° SSE 23:04:23 16° ENE visible
14 Dec 4.6 00:41:08 10° W 00:49:15 56° NNW 00:49:15 56° NNW visible
14 Dec 3.5 08:26:02 85° SSE 08:26:02 85° SSE 08:31:45 10° ESE visible
14 Dec 4.6 10:12:31 10° W 10:17:23 23° SW 10:21:14 10° SSE visible
14 Dec 4.2 23:19:08 10° WSW 23:26:43 79° NNW 23:32:27 28° ENE visible
